Weather Roundup
Issued by NWS Springfield, MO

Home | Current Version | Previous Version | Text Only | Print | Product List | Glossary On
Versions: 1 2 3 4 5 6 7 8 9 10 11 12 13 14 15 16 17 18 19 20 21 22 23 24 25 26 27 28 29 30 31 32 33 34 35 36 37 38 39 40 41 42 43 44 45 46 47 48 49 50
000
NZUS99 KSGF 201207
HRRSGF

HOURLY WEATHER
NATIONAL WEATHER SERVICE SPRINGFIELD MO
600 AM CST MON FEB 20 2017

......SGF CWA......

CITY           SKY/WX    TMP DP  RH WIND       PRES   REMARKS
SPRINGFIELD    CLOUDY    60  55  83 SE17      29.91R
6HR MIN TEMP:  60; 6HR MAX TEMP:  61;

JOPLIN         PTCLDY    64  53  67 SE13      29.83F
6HR MIN TEMP:  62; 6HR MAX TEMP:  67;

WEST PLAINS    PTCLDY    56  51  84 SE7       30.03R
6HR MIN TEMP:  55; 6HR MAX TEMP:  58;

ROLLA          PTCLDY    58  52  80 S12       29.98S
6HR MIN TEMP:  57; 6HR MAX TEMP:  59;

OSAGE BEACH    PTCLDY    61  54  77 SE12      29.95F
BRANSON        CLEAR     55  55 100 SE7       29.95S

......SURROUNDING SGF CWA......

CITY           SKY/WX    TMP DP  RH WIND       PRES   REMARKS
CHANUTE        CLOUDY    60  56  86 S10       29.83S
PARSONS        CLOUDY    60  57  89 S7        29.84R
COFFEYVILLE    CLOUDY    60  59  96 S12       29.84R
EMPORIA        CLOUDY    58  57  97 SE13      29.77F
GROVE OK       CLOUDY    68  57  68 S14G21    29.84R
ROGERS AR      CLOUDY    64  52  64 SE16G22   29.88F
SILOAM SPRINGS CLOUDY    66  54  63 S18G29    29.86S
HARRISON AR    CLEAR     60  53  77 SE15      29.95S
NEAR YELLVILLE CLEAR     54  48  82 E5        29.96R

......KANSAS AND MISSOURI......

CITY           SKY/WX    TMP DP  RH WIND       PRES   REMARKS
KANSAS CTY INT CLOUDY    61  56  83 S13       29.83F
DOWNTOWN KC    CLOUDY    63  55  75 S6        29.84F
COLUMBIA       MOCLDY    59  55  87 SE14      29.94F
SEDALIA        CLOUDY    63  55  75 SE15      29.89F
ST JOSEPH      CLOUDY    63  56  78 SE10      29.81F
ST LOUIS       CLOUDY    53  50  89 SE9       30.04S
SPIRIT OF STL  CLOUDY    50  50 100 E6        30.01F FOG
KIRKSVILLE     CLOUDY    56  54  93 SE10      29.93F
WICHITA        CLOUDY    58  57  97 S14       29.81R
TOPEKA         CLOUDY    61  57  87 SE13      29.78F
OLATHE         CLOUDY    61  55  81 SE9       29.84F

......TENNESSEE......

CITY           SKY/WX    TMP DP  RH WIND       PRES   REMARKS
MEMPHIS        PTCLDY    62  50  64 SE12      30.04F
NASHVILLE      MOCLDY    48  45  89 NE6       30.17F

......ARKANSAS.......

CITY           SKY/WX    TMP DP  RH WIND       PRES   REMARKS
FAYETTEVILLE   CLOUDY    66  57  72 S21G30    29.88S
FT SMITH       CLOUDY    66  56  70 SE7       29.88S
LITTLE ROCK    MOCLDY    51  51 100 CALM      30.01R

......OKLAHOMA.......

CITY           SKY/WX    TMP DP  RH WIND       PRES   REMARKS
TULSA          CLOUDY    60  59  96 S10       29.84R
PONCA CITY       N/A     58  55  90 S7        29.80
MCALESTER      LGT RAIN  58  55  90 SW3       29.91F
OKLAHOMA CITY  CLOUDY    55  53  93 S9        29.78F

......IOWA............

CITY           SKY/WX    TMP DP  RH WIND       PRES   REMARKS
DES MOINES     CLOUDY    60  53  77 SE10      29.85F
QUAD CITIES    PTCLDY    51  47  86 SE8       30.00F FOG

......ILLINOIS........

CITY           SKY/WX    TMP DP  RH WIND       PRES   REMARKS
QUINCY         CLOUDY    53  51  93 SE10      29.98S FOG
CHICAGO        CLOUDY    46  43  89 S6        30.12R FOG



USA.gov is the U.S. government's official web portal to all federal, state and local government web resources and services.